This is the latest recevied weather packets stored in our database for station/object N9WHM. If no packets are shown the sender has not sent any weather packets the latest 10 day(s).
| Time | Temp. | Humidity | Pressure | Rain* | Wind** | Luminosity | Snow |
|---|---|---|---|---|---|---|---|
| 1777634636 | 2.22° C | 75% | 1017.7 hPa | 0 mm | - | 4 W/m² | - |
| 1777634334 | 2.78° C | 74% | 1017.6 hPa | 0 mm | - | 2 W/m² | - |
| 1777634029 | 2.78° C | 73% | 1017.5 hPa | 0 mm | - | 1 W/m² | - |
| 1777633726 | 2.78° C | 74% | 1017.5 hPa | 0 mm | - | 0 W/m² | - |
| 1777633425 | 2.78° C | 74% | 1017.6 hPa | 0 mm | - | 0 W/m² | - |
| 1777633122 | 2.78° C | 73% | 1017.6 hPa | 0 mm | - | 0 W/m² | - |
| 1777632818 | 2.78° C | 73% | 1017.5 hPa | 0 mm | - | 0 W/m² | - |
| 1777632514 | 2.78° C | 73% | 1017.3 hPa | 0 mm | - | 0 W/m² | - |
| 1777632212 | 2.78° C | 73% | 1017.6 hPa | 0 mm | - | 0 W/m² | - |
| 1777631909 | 2.22° C | 75% | 1017.4 hPa | 0 mm | - | 0 W/m² | - |
| 1777631607 | 2.22° C | 75% | 1017.5 hPa | 0 mm | - | 0 W/m² | - |
| 1777631304 | 2.22° C | 75% | 1017.4 hPa | 0 mm | - | 0 W/m² | - |
| 1777631001 | 2.22° C | 76% | 1017.4 hPa | 0 mm | - | 0 W/m² | - |
| 1777630696 | 2.78° C | 75% | 1017.4 hPa | 0 mm | - | 0 W/m² | - |
| 1777630394 | 2.78° C | 74% | 1017.3 hPa | 0 mm | - | 0 W/m² | - |
| 1777630091 | 2.78° C | 72% | 1017.4 hPa | 0 mm | - | 0 W/m² | - |
| 1777629789 | 3.33° C | 70% | 1017.3 hPa | 0 mm | - | 0 W/m² | - |
| 1777629485 | 3.89° C | 70% | 1017.2 hPa | 0 mm | - | 0 W/m² | - |
| 1777629181 | 3.89° C | 69% | 1017.2 hPa | 0 mm | - | 0 W/m² | - |
| 1777628878 | 3.33° C | 71% | 1017.4 hPa | 0 mm | - | 0 W/m² | - |
| 1777628575 | 3.89° C | 71% | 1017.4 hPa | 0 mm | - | 0 W/m² | - |
| 1777628271 | 3.33° C | 71% | 1017.3 hPa | 0 mm | - | 0 W/m² | - |
| 1777627967 | 2.78° C | 72% | 1017.4 hPa | 0 mm | - | 0 W/m² | - |
| 1777627660 | 3.33° C | 72% | 1017.3 hPa | 0 mm | - | 0 W/m² | - |
| 1777627360 | 3.33° C | 71% | 1017.3 hPa | 0 mm | - | 0 W/m² | - |
* Rain latest hour (hover to see other rain measurements)
** Current wind speed in m/s (hover to see current wind gust speed)